Radiation Dose at Monitoring Post of Fukushima Daini Nuclear Power Station
Date,Time,MP-1(microSv/h),MP-2(microSv/h),MP-3(microSv/h),MP-4(microSv/h),MP-5(microSv/h),MP-6(microSv/h),MP-7(microSv/h),Wind Direction,Wind Velocity(m/s),Rain
2019/07/15,00:00,0.180,0.164,0.270,0.254,0.257,0.133,0.085,north-northwest,4.4,No
2019/07/15,00:10,0.178,0.163,0.270,0.255,0.262,0.133,0.084,north-northwest,5.2,Yes
2019/07/15,00:20,0.181,0.165,0.271,0.254,0.259,0.137,0.087,north,5.4,Yes
2019/07/15,00:30,0.181,0.166,0.271,0.257,0.264,0.137,0.088,north-northwest,6.5,Yes
2019/07/15,00:40,0.182,0.165,0.274,0.255,0.262,0.139,0.088,north-northwest,6.3,Yes
2019/07/15,00:50,0.181,0.165,0.270,0.258,0.262,0.138,0.089,north-northwest,6.5,No
2019/07/15,01:00,0.180,0.166,0.273,0.256,0.262,0.136,0.088,north-northwest,5.9,Yes
2019/07/15,01:10,0.182,0.165,0.270,0.256,0.261,0.137,0.088,north-northwest,4.8,Yes
2019/07/15,01:20,0.183,0.169,0.275,0.258,0.264,0.139,0.090,north-northwest,7.0,Yes
2019/07/15,01:30,0.188,0.172,0.276,0.261,0.265,0.143,0.095,north-northwest,7.6,Yes
2019/07/15,01:40,0.188,0.175,0.279,0.263,0.271,0.146,0.097,north,7.0,Yes
2019/07/15,01:50,0.190,0.175,0.278,0.261,0.270,0.146,0.098,north-northwest,5.3,Yes
2019/07/15,02:00,0.188,0.175,0.277,0.261,0.271,0.146,0.097,north-northwest,4.9,Yes
2019/07/15,02:10,0.189,0.175,0.277,0.259,0.269,0.145,0.098,north-northwest,5.0,Yes
2019/07/15,02:20,0.189,0.174,0.277,0.263,0.270,0.146,0.098,north-northwest,5.9,Yes
2019/07/15,02:30,0.189,0.175,0.277,0.261,0.270,0.146,0.098,north-northwest,6.2,Yes
2019/07/15,02:40,0.189,0.173,0.276,0.262,0.268,0.146,0.098,north-northwest,6.2,Yes
2019/07/15,02:50,0.187,0.174,0.277,0.261,0.270,0.145,0.096,north-northwest,6.6,Yes
2019/07/15,03:00,0.188,0.172,0.273,0.258,0.267,0.144,0.095,north-northwest,7.6,No
2019/07/15,03:10,0.185,0.171,0.275,0.259,0.268,0.141,0.094,north-northwest,8.5,No
2019/07/15,03:20,0.185,0.169,0.273,0.255,0.264,0.140,0.092,north-northwest,7.0,Yes
2019/07/15,03:30,0.183,0.169,0.274,0.259,0.266,0.140,0.090,north-northwest,7.0,No
2019/07/15,03:40,0.184,0.167,0.270,0.256,0.264,0.137,0.090,north-northwest,7.0,Yes
2019/07/15,03:50,0.181,0.167,0.271,0.255,0.264,0.138,0.088,north-northwest,7.0,Yes
2019/07/15,04:00,0.182,0.166,0.270,0.254,0.263,0.137,0.089,north-northwest,6.7,Yes
2019/07/15,04:10,0.181,0.166,0.271,0.255,0.262,0.136,0.088,north-northwest,7.0,No
2019/07/15,04:20,0.181,0.165,0.269,0.254,0.264,0.136,0.088,north,5.5,Yes
2019/07/15,04:30,0.181,0.165,0.270,0.253,0.260,0.135,0.088,north-northwest,4.5,Yes
2019/07/15,04:40,0.181,0.164,0.269,0.254,0.262,0.137,0.087,north,5.0,No
2019/07/15,04:50,0.180,0.164,0.268,0.254,0.260,0.134,0.087,north-northwest,4.0,No
2019/07/15,05:00,0.178,0.164,0.270,0.253,0.260,0.134,0.085,north,5.7,Yes
2019/07/15,05:10,0.180,0.162,0.267,0.252,0.260,0.134,0.086,north-northwest,5.0,No
2019/07/15,05:20,0.177,0.163,0.270,0.254,0.259,0.134,0.085,north-northwest,5.3,No
2019/07/15,05:30,0.179,0.163,0.267,0.252,0.261,0.134,0.085,north-northwest,4.9,No
2019/07/15,05:40,0.180,0.164,0.269,0.253,0.257,0.133,0.085,north,4.3,No
2019/07/15,05:50,0.180,0.163,0.267,0.253,0.259,0.134,0.085,north-northwest,4.5,No
2019/07/15,06:00,0.179,0.162,0.268,0.252,0.257,0.133,0.085,north,5.2,No
2019/07/15,06:10,0.177,0.162,0.268,0.254,0.259,0.133,0.084,north,5.2,No
2019/07/15,06:20,0.179,0.162,0.268,0.251,0.259,0.133,0.084,north,5.3,No
2019/07/15,06:30,0.179,0.161,0.268,0.254,0.258,0.133,0.085,north,5.5,No
2019/07/15,06:40,0.180,0.163,0.269,0.253,0.259,0.133,0.084,north,5.5,No
2019/07/15,06:50,0.178,0.161,0.269,0.251,0.257,0.133,0.084,north,5.9,No
2019/07/15,07:00,0.177,0.163,0.266,0.254,0.261,0.133,0.083,north,4.8,No
2019/07/15,07:10,0.180,0.162,0.269,0.250,0.258,0.133,0.084,north,6.0,No
2019/07/15,07:20,0.178,0.163,0.268,0.252,0.259,0.133,0.085,north,4.4,No
2019/07/15,07:30,0.179,0.163,0.268,0.251,0.261,0.134,0.085,north,5.9,Yes
2019/07/15,07:40,0.179,0.161,0.269,0.253,0.257,0.134,0.084,north,7.0,No
2019/07/15,07:50,0.179,0.163,0.267,0.252,0.260,0.133,0.085,north,5.9,No
2019/07/15,08:00,0.179,0.163,0.269,0.251,0.258,0.134,0.084,north,5.1,No
2019/07/15,08:10,0.178,0.163,0.267,0.253,0.259,0.134,0.085,north,5.6,No
2019/07/15,08:20,0.179,0.162,0.270,0.251,0.260,0.134,0.085,north,3.6,No
2019/07/15,08:30,0.178,0.163,0.268,0.253,0.257,0.133,0.085,north,4.8,No
2019/07/15,08:40,0.180,0.162,0.268,0.252,0.261,0.132,0.085,north,5.2,No
2019/07/15,08:50,0.178,0.162,0.268,0.252,0.258,0.134,0.085,north,5.3,No
2019/07/15,09:00,0.178,0.163,0.268,0.253,0.259,0.133,0.084,north,5.6,No
2019/07/15,09:10,0.179,0.162,0.271,0.251,0.260,0.133,0.085,north,6.0,No
2019/07/15,09:20,0.178,0.163,0.266,0.252,0.257,0.133,0.084,north,5.6,No
2019/07/15,09:30,0.180,0.161,0.269,0.254,0.259,0.132,0.084,north,4.6,No
2019/07/15,09:40,0.178,0.162,0.268,0.252,0.260,0.133,0.084,north,5.1,No
2019/07/15,09:50,0.179,0.163,0.269,0.254,0.256,0.133,0.084,north,5.6,No
2019/07/15,10:00,0.180,0.162,0.270,0.253,0.260,0.134,0.083,north,5.9,No
2019/07/15,10:10,0.178,0.163,0.267,0.251,0.259,0.132,0.084,north,5.7,No
2019/07/15,10:20,0.179,0.163,0.270,0.254,0.257,0.133,0.084,north,4.8,No
2019/07/15,10:30,0.180,0.161,0.270,0.253,0.259,0.133,0.084,north,5.6,No
2019/07/15,10:40,0.179,0.164,0.268,0.251,0.261,0.133,0.085,north,5.2,No
2019/07/15,10:50,0.180,0.164,0.270,0.253,0.258,0.133,0.084,north,5.3,No
2019/07/15,11:00,0.180,0.162,0.269,0.253,0.258,0.135,0.085,north,5.7,No
2019/07/15,11:10,0.178,0.163,0.268,0.251,0.261,0.134,0.084,north,5.1,No
2019/07/15,11:20,0.179,0.163,0.271,0.253,0.261,0.133,0.084,north,5.1,No
2019/07/15,11:30,0.179,0.162,0.269,0.255,0.258,0.133,0.084,north,4.6,No
2019/07/15,11:40,0.177,0.164,0.268,0.253,0.257,0.133,0.084,north,5.4,No
2019/07/15,11:50,0.180,0.165,0.270,0.253,0.261,0.133,0.085,north,5.2,No
2019/07/15,12:00,0.180,0.164,0.270,0.255,0.260,0.133,0.084,north,5.7,No
2019/07/15,12:10,0.178,0.163,0.267,0.254,0.259,0.134,0.085,north,5.6,No
2019/07/15,12:20,0.180,0.164,0.271,0.252,0.258,0.134,0.085,north,6.0,No
2019/07/15,12:30,0.181,0.163,0.269,0.254,0.260,0.134,0.084,north,6.0,No
2019/07/15,12:40,0.179,0.162,0.268,0.255,0.261,0.134,0.084,north,5.9,No
2019/07/15,12:50,0.180,0.164,0.269,0.254,0.260,0.134,0.085,north,5.9,No
2019/07/15,13:00,0.181,0.165,0.272,0.253,0.259,0.134,0.085,north,6.5,No
2019/07/15,13:10,0.179,0.163,0.269,0.253,0.259,0.135,0.084,north,6.2,No
2019/07/15,13:20,0.179,0.162,0.267,0.256,0.257,0.134,0.083,north,5.7,No
2019/07/15,13:30,0.182,0.162,0.270,0.256,0.258,0.135,0.084,north,6.5,No
2019/07/15,13:40,0.180,0.164,0.271,0.255,0.262,0.134,0.085,north,4.9,No
2019/07/15,13:50,0.179,0.163,0.269,0.252,0.262,0.133,0.084,north,5.4,No
2019/07/15,14:00,0.181,0.163,0.268,0.254,0.261,0.134,0.085,north,6.6,No
2019/07/15,14:10,0.180,0.164,0.273,0.257,0.259,0.135,0.084,north,6.4,No
2019/07/15,14:20,0.180,0.164,0.271,0.255,0.259,0.136,0.085,north,6.4,No
2019/07/15,14:30,0.181,0.163,0.268,0.253,0.259,0.134,0.085,north,6.2,No
2019/07/15,14:40,0.182,0.164,0.271,0.254,0.263,0.134,0.085,north,6.4,No
2019/07/15,14:50,0.179,0.164,0.271,0.256,0.262,0.134,0.085,north,6.2,No
2019/07/15,15:00,0.182,0.163,0.268,0.256,0.259,0.134,0.085,north,6.2,No
2019/07/15,15:10,0.182,0.164,0.271,0.254,0.259,0.134,0.085,north,6.0,No
2019/07/15,15:20,0.181,0.164,0.272,0.256,0.261,0.135,0.085,north,6.7,No
2019/07/15,15:30,0.179,0.163,0.270,0.257,0.263,0.134,0.085,north,6.3,No
2019/07/15,15:40,0.182,0.163,0.269,0.255,0.261,0.135,0.085,north,5.3,No
2019/07/15,15:50,0.180,0.165,0.273,0.254,0.259,0.135,0.085,north,6.2,No
2019/07/15,16:00,0.180,0.165,0.272,0.257,0.258,0.134,0.085,north,5.9,No
2019/07/15,16:10,0.182,0.163,0.270,0.256,0.262,0.135,0.085,north,5.3,No
2019/07/15,16:20,0.180,0.164,0.272,0.254,0.262,0.136,0.085,north,7.0,No
2019/07/15,16:30,0.181,0.164,0.272,0.258,0.259,0.135,0.085,north,6.2,No
2019/07/15,16:40,0.182,0.165,0.269,0.256,0.261,0.135,0.085,north,6.0,No
2019/07/15,16:50,0.180,0.164,0.273,0.254,0.264,0.135,0.085,north,4.0,No
2019/07/15,17:00,0.183,0.165,0.271,0.257,0.261,0.135,0.085,north,4.1,No
2019/07/15,17:10,0.181,0.166,0.271,0.256,0.262,0.134,0.085,north,3.2,No
2019/07/15,17:20,0.181,0.164,0.272,0.255,0.263,0.134,0.085,north-northwest,3.3,No
2019/07/15,17:30,0.182,0.164,0.269,0.256,0.261,0.136,0.085,north,4.4,No
2019/07/15,17:40,0.181,0.164,0.272,0.256,0.261,0.134,0.086,north,4.4,No
2019/07/15,17:50,0.181,0.164,0.272,0.256,0.262,0.135,0.084,north,3.9,No
2019/07/15,18:00,0.180,0.165,0.272,0.258,0.259,0.135,0.085,north,4.8,No
2019/07/15,18:10,0.181,0.164,0.274,0.255,0.263,0.135,0.086,north,3.7,No
2019/07/15,18:20,0.183,0.165,0.271,0.258,0.262,0.136,0.085,north-northwest,3.8,No
2019/07/15,18:30,0.180,0.164,0.273,0.257,0.260,0.136,0.085,north-northwest,4.8,No
2019/07/15,18:40,0.181,0.164,0.271,0.256,0.263,0.135,0.085,north-northwest,5.4,No
2019/07/15,18:50,0.181,0.165,0.274,0.258,0.261,0.136,0.085,north-northwest,4.2,No
2019/07/15,19:00,0.182,0.164,0.272,0.255,0.263,0.135,0.085,north-northwest,4.6,No
2019/07/15,19:10,0.182,0.164,0.271,0.257,0.262,0.135,0.085,north-northwest,5.3,No
2019/07/15,19:20,0.181,0.163,0.272,0.258,0.261,0.136,0.085,north-northwest,4.6,No
2019/07/15,19:30,0.182,0.165,0.270,0.255,0.265,0.135,0.084,north-northwest,5.1,No
2019/07/15,19:40,0.180,0.164,0.274,0.257,0.261,0.135,0.085,north-northwest,5.5,No
2019/07/15,19:50,0.183,0.165,0.271,0.255,0.262,0.136,0.086,north-northwest,5.1,No
2019/07/15,20:00,0.182,0.164,0.274,0.258,0.262,0.135,0.085,north-northwest,6.2,No
2019/07/15,20:10,0.181,0.164,0.273,0.256,0.262,0.135,0.085,north-northwest,6.7,No
2019/07/15,20:20,0.183,0.165,0.273,0.257,0.263,0.135,0.085,north-northwest,7.3,No
2019/07/15,20:30,0.180,0.165,0.274,0.257,0.261,0.135,0.085,north-northwest,6.3,No
2019/07/15,20:40,0.181,0.165,0.272,0.256,0.264,0.137,0.085,north-northwest,5.6,No
2019/07/15,20:50,0.181,0.165,0.273,0.258,0.261,0.135,0.085,north,4.8,No
2019/07/15,21:00,0.182,0.165,0.270,0.255,0.262,0.136,0.085,north-northwest,4.0,No
2019/07/15,21:10,0.182,0.164,0.273,0.257,0.262,0.135,0.085,north-northwest,4.0,No
2019/07/15,21:20,0.182,0.166,0.272,0.257,0.261,0.136,0.086,north-northwest,5.2,No
2019/07/15,21:30,0.182,0.164,0.271,0.256,0.262,0.136,0.085,north-northwest,4.4,No
2019/07/15,21:40,0.180,0.165,0.274,0.259,0.261,0.135,0.086,north-northwest,5.9,No
2019/07/15,21:50,0.182,0.164,0.272,0.255,0.263,0.136,0.084,north-northwest,3.6,No
2019/07/15,22:00,0.182,0.165,0.273,0.258,0.261,0.136,0.085,north-northwest,4.8,No
2019/07/15,22:10,0.181,0.165,0.271,0.257,0.263,0.136,0.085,north,4.4,No
2019/07/15,22:20,0.182,0.165,0.273,0.258,0.262,0.136,0.084,north,5.5,No
2019/07/15,22:30,0.182,0.164,0.272,0.257,0.261,0.135,0.085,north-northeast,5.6,No
2019/07/15,22:40,0.182,0.165,0.274,0.257,0.263,0.136,0.085,north-northwest,5.6,No
2019/07/15,22:50,0.180,0.165,0.274,0.259,0.261,0.136,0.085,north,5.5,No
2019/07/15,23:00,0.182,0.164,0.271,0.255,0.264,0.135,0.086,north-northwest,5.2,No
2019/07/15,23:10,0.181,0.165,0.274,0.258,0.260,0.136,0.085,north-northwest,5.1,No
2019/07/15,23:20,0.182,0.165,0.270,0.256,0.263,0.135,0.086,north-northwest,4.8,Yes
2019/07/15,23:30,0.181,0.164,0.274,0.257,0.260,0.136,0.085,north-northwest,6.2,No
2019/07/15,23:40,0.182,0.164,0.271,0.257,0.262,0.136,0.086,north-northwest,5.9,Yes
2019/07/15,23:50,0.182,0.165,0.273,0.256,0.263,0.137,0.086,north-northwest,5.9,Yes
